Location: Brabourne
(51.1333°N, 1.0000°E)
Time: 08:07:57
(UTC+00:00)

Cosmos 1812 Rocket - Pass Details

Date: 20 June 2021
Orbit: 606 x 631 km, 82.5° (Epoch: 02 August)

Event Time Altitude Azimuth Distance (km) Brightness Sun altitude
Rises 00:10:45 0° 345° (NNW) 2,882 8.4 -15.4°
Reaches altitude 10° 00:13:02 10° 339° (NNW) 1,975 7.2 -15.4°
Maximum altitude 00:17:13 47° 266° (W) 814 4.1 -15.3°
Enters shadow 00:19:24 25° 206° (SSW) 1,244 4.6 -15.3°
